Location: Bremen
(53.0793°N, 8.8017°E)
Time: 23:12:20
(UTC+02:00)

Vanguard 2 Rocket - Pass Details

Date: 15 April 2024
Orbit: 556 x 3304 km, 32.9° (Epoch: 20 May)

Event Time Altitude Azimuth Distance (km) Brightness Sun altitude
Rises 03:47:41 0° 259° (WSW) 7,289 - -20.1°
Reaches altitude 10° 03:53:29 10° 251° (WSW) 6,186 - -19.5°
Exits shadow 03:58:39 19° 241° (WSW) 5,240 10.2 -19.0°
Maximum altitude 04:08:48 32° 198° (SSW) 3,902 9.6 -18.0°
Drops below altitude 10° 04:19:57 10° 142° (SE) 4,480 10.4 -16.8°
Sets 04:23:21 0° 132° (SE) 5,113 10.8 -16.5°
